QPF
0.00 0.00 0.00 0.00 0.00 0.00 0.00 0.00 0.00 0.00 0.00 0.00 0.00 0.00 0.00 0.00 0.00 0.00 0.00 0.00 0.00 0.00 0.00 0.00 0.00 0.00 0.00 0.00 0.00 0.00 0.00 0.00 0.00 0.00 0.00 0.00 0.00 0.00 0.00 0.00 0.00 0.00 0.00
0.00 0.00 0.00 0.00 0.00 0.00 0.00 0.00 0.00 0.00 0.00 0.00 0.00 0.00 0.00 0.00 0.00 0.00 0.00 0.00 0.00 0.00 0.00 0.00 0.00 0.00 0.00 0.00 0.00 0.00 0.00 0.00 0.01 0.04 0.04 0.00 0.00 0.00 0.00 0.00 0.00 0.00 0.00
0.00 0.00 0.00 0.00 0.00 0.00 0.00 0.00 0.00 0.00 0.00 0.00 0.00 0.00 0.00 0.00 0.00 0.00 0.00 0.00 0.00 0.00 0.00 0.00 0.00 0.00 0.00 0.00 0.00 0.00 0.00 0.00 0.00 0.01 0.05 0.01 0.00 0.00 0.00 0.00 0.00 0.00 0.00
0.00 0.00 0.00 0.00 0.00 0.00 0.00 0.00 0.00 0.00 0.00 0.00 0.00 0.00 0.00 0.00 0.00 0.00 0.00 0.00 0.00 0.00 0.00 0.00 0.00 0.00 0.00 0.00 0.00 0.00 0.00 0.00 0.00 0.00 0.00 0.00 0.01 0.04 0.00 0.00 0.00 0.00 0.00
0.00 0.00 0.00 0.00 0.00 0.00 0.00 0.00 0.00 0.00 0.00 0.00 0.00 0.00 0.00 0.00 0.00 0.00 0.00 0.00 0.00 0.00 0.00 0.00 0.00 0.00 0.00 0.00 0.00 0.00 0.00 0.00 0.00 0.00 0.00 0.00 0.00 0.01 0.02 0.00 0.00 0.00 0.00
0.00 0.00 0.00 0.00 0.00 0.00 0.00 0.00 0.00 0.00 0.00 0.00 0.00 0.00 0.00 0.00 0.00 0.00 0.00 0.00 0.00 0.00 0.00 0.00 0.00 0.00 0.00 0.00 0.00 0.00 0.00 0.00 0.00 0.00 0.00 0.00 0.00 0.00 0.00 0.00 0.00 0.00 0.00
0.00 0.00 0.00 0.00 0.00 0.00 0.00 0.00 0.00 0.00 0.00 0.00 0.00 0.00 0.00 0.00 0.00 0.00 0.00 0.00 0.00 0.00 0.00 0.00 0.00 0.00 0.00 0.00 0.00 0.00 0.00 0.00 0.00 0.00 0.00 0.00 0.00 0.00 0.00 0.01 0.00 0.00 0.00
0.00 0.00 0.00 0.00 0.00 0.00 0.00 0.00 0.00 0.00 0.00 0.00 0.00 0.00 0.00 0.00 0.00 0.00 0.00 0.00 0.00 0.00 0.00 0.00 0.00 0.00 0.00 0.00 0.00 0.00 0.00 0.00 0.00 0.00 0.00 0.00 0.00 0.00 0.00 0.00 0.00 0.00 0.00
0.00 0.00 0.00 0.00 0.00 0.00 0.00 0.00 0.00 0.00 0.00 0.00 0.00 0.00 0.00 0.00 0.00 0.00 0.00 0.00 0.00 0.00 0.00 0.00 0.00 0.00 0.00 0.00 0.00 0.00 0.00 0.00 0.00 0.00 0.00 0.00 0.00 0.00 0.00 0.00 0.00 0.00 0.00
0.00 0.00 0.00 0.00 0.00 0.00 0.00 0.00 0.00 0.00 0.00 0.00 0.00 0.00 0.00 0.00 0.00 0.00 0.01 0.00 0.01 0.01 0.00 0.00 0.00 0.00 0.00 0.00 0.00 0.00 0.00 0.00 0.00 0.00 0.00 0.00 0.00 0.00 0.00 0.00 0.00 0.00 0.00
0.00 0.00 0.00 0.00 0.00 0.00 0.00 0.00 0.00 0.00 0.00 0.00 0.00 0.00 0.00 0.00 0.00 0.00 0.02 0.04 0.02 0.02 0.02 0.02 0.01 0.00 0.00 0.00 0.00 0.00 0.00 0.00 0.00 0.00 0.00 0.00 0.00 0.00 0.02 0.00 0.00 0.00 0.00
0.00 0.00 0.00 0.00 0.00 0.00 0.00 0.00 0.00 0.00 0.00 0.00 0.00 0.00 0.00 0.00 0.00 0.00 0.01 0.05 0.06 0.05 0.05 0.05 0.03 0.02 0.02 0.02 0.00 0.00 0.00 0.00 0.00 0.00 0.00 0.00 0.00 0.00 0.01 0.00 0.00 0.00 0.00
0.00 0.00 0.00 0.00 0.00 0.00 0.00 0.00 0.00 0.00 0.00 0.00 0.00 0.00 0.00 0.00 0.00 0.00 0.00 0.00 0.03 0.06 0.09 0.10 0.12 0.08 0.05 0.03 0.01 0.03 0.02 0.00 0.00 0.00 0.00 0.00 0.00 0.00 0.00 0.00 0.00 0.00 0.00
0.00 0.00 0.00 0.00 0.00 0.00 0.00 0.00 0.00 0.00 0.00 0.01 0.02 0.01 0.00 0.00 0.00 0.00 0.00 0.00 0.01 0.07 0.10 0.16 0.15 0.05 0.05 0.07 0.05 0.02 0.01 0.00 0.01 0.02 0.00 0.00 0.00 0.00 0.00 0.00 0.00 0.00 0.00
0.00 0.00 0.00 0.00 0.00 0.00 0.00 0.00 0.00 0.00 0.00 0.00 0.00 0.00 0.00 0.00 0.00 0.00 0.00 0.00 0.05 0.16 0.16 0.03 0.05 0.06 0.09 0.08 0.08 0.06 0.03 0.00 0.03 0.02 0.01 0.01 0.00 0.00 0.00 0.00 0.00 0.00 0.00
0.00 0.00 0.00 0.00 0.00 0.00 0.00 0.00 0.00 0.00 0.00 0.00 0.00 0.00 0.00 0.00 0.00 0.00 0.00 0.00 0.02 0.09 0.12 0.03 0.02 0.06 0.09 0.11 0.06 0.02 0.00 0.00 0.01 0.00 0.00 0.00 0.00 0.00 0.00 0.00 0.00 0.00 0.00
0.00 0.00 0.00 0.00 0.00 0.00 0.00 0.01 0.00 0.00 0.00 0.00 0.00 0.00 0.00 0.00 0.00 0.00 0.00 0.00 0.01 0.07 0.22 0.07 0.01 0.01 0.03 0.06 0.03 0.00 0.01 0.00 0.00 0.00 0.00 0.00 0.00 0.00 0.00 0.00 0.00 0.00 0.00
0.00 0.00 0.00 0.00 0.00 0.03 0.02 0.03 0.00 0.00 0.00 0.00 0.00 0.00 0.00 0.00 0.00 0.00 0.01 0.02 0.02 0.03 0.15 0.22 0.15 0.11 0.08 0.10 0.08 0.03 0.01 0.00 0.00 0.00 0.00 0.00 0.00 0.00 0.00 0.00 0.00 0.00 0.00
0.00 0.00 0.00 0.00 0.00 0.02 0.01 0.01 0.02 0.00 0.01 0.01 0.00 0.00 0.00 0.00 0.00 0.00 0.01 0.03 0.02 0.03 0.02 0.04 0.09 0.09 0.10 0.12 0.06 0.02 0.01 0.00 0.00 0.00 0.00 0.00 0.00 0.00 0.00 0.00 0.00 0.00 0.00
0.00 0.00 0.00 0.00 0.00 0.01 0.03 0.03 0.05 0.00 0.00 0.00 0.00 0.00 0.00 0.00 0.00 0.00 0.00 0.00 0.00 0.00 0.00 0.00 0.01 0.04 0.04 0.03 0.02 0.02 0.01 0.01 0.00 0.00 0.00 0.00 0.00 0.00 0.00 0.00 0.00 0.00 0.00
0.00 0.00 0.00 0.00 0.01 0.01 0.07 0.04 0.06 0.01 0.01 0.01 0.00 0.00 0.00 0.00 0.00 0.00 0.00 0.00 0.00 0.00 0.00 0.00 0.00 0.01 0.03 0.02 0.01 0.01 0.02 0.02 0.01 0.00 0.00 0.00 0.00 0.00 0.00 0.00 0.00 0.00 0.00
0.00 0.00 0.00 0.00 0.00 0.00 0.00 0.00 0.01 0.00 0.00 0.00 0.00 0.00 0.00 0.00 0.00 0.00 0.00 0.00 0.00 0.00 0.00 0.00 0.00 0.00 0.00 0.00 0.00 0.00 0.00 0.00 0.00 0.00 0.00 0.00 0.00 0.00 0.00 0.00 0.00 0.01 0.01
0.00 0.00 0.00 0.00 0.00 0.00 0.00 0.00 0.00 0.00 0.00 0.00 0.00 0.00 0.00 0.00 0.00 0.00 0.00 0.00 0.00 0.00 0.00 0.00 0.00 0.00 0.00 0.00 0.00 0.01 0.01 0.01 0.00 0.00 0.00 0.00 0.00 0.00 0.00 0.00 0.00 0.00 0.01
0.00 0.00 0.00 0.00 0.00 0.00 0.00 0.00 0.00 0.00 0.00 0.00 0.00 0.00 0.00 0.00 0.00 0.00 0.00 0.00 0.00 0.00 0.00 0.00 0.00 0.00 0.00 0.00 0.00 0.00 0.00 0.01 0.01 0.01 0.00 0.00 0.00 0.00 0.00 0.00 0.00 0.00 0.00
0.00 0.00 0.00 0.00 0.00 0.00 0.00 0.00 0.00 0.00 0.00 0.00 0.00 0.00 0.00 0.00 0.00 0.00 0.00 0.00 0.00 0.00 0.00 0.00 0.00 0.00 0.00 0.00 0.00 0.00 0.00 0.00 0.01 0.02 0.02 0.02 0.02 0.01 0.00 0.00 0.00 0.00 0.00
0.00 0.00 0.00 0.00 0.00 0.00 0.00 0.00 0.00 0.00 0.00 0.00 0.00 0.00 0.00 0.00 0.00 0.00 0.00 0.00 0.00 0.00 0.00 0.00 0.00 0.00 0.00 0.00 0.00 0.00 0.00 0.00 0.00 0.01 0.01 0.02 0.02 0.01 0.00 0.00 0.00 0.00 0.00
MSLP
1013.32 1012.73 1012.43 1012.23 1012.04 1012.04 1012.42 1012.74 1012.98 1013.14 1013.27 1013.36 1013.38 1013.40 1013.44 1013.47 1013.51 1013.54 1013.61 1013.57 1013.56 1013.57 1013.62 1013.70 1013.75 1013.78 1013.82 1013.83 1013.85 1013.82 1013.76 1013.62 1013.57 1013.70 1013.88 1013.97 1014.06 1014.09 1014.01 1013.91 1013.99 1014.11 1014.04
1013.45 1012.92 1012.67 1012.74 1012.72 1012.57 1012.62 1012.98 1013.24 1013.47 1013.69 1013.81 1013.85 1013.89 1013.89 1013.93 1013.99 1013.98 1013.92 1013.92 1013.86 1013.83 1013.83 1013.88 1013.93 1013.96 1013.98 1014.03 1014.11 1014.17 1014.10 1013.94 1013.81 1013.81 1013.93 1014.08 1014.15 1014.19 1014.15 1014.08 1014.10 1014.17 1014.20
1013.53 1013.36 1013.30 1013.27 1012.91 1013.10 1013.23 1013.26 1013.48 1013.66 1013.81 1014.01 1014.09 1014.09 1014.16 1014.17 1014.21 1014.23 1014.24 1014.14 1014.09 1014.07 1014.06 1014.14 1014.17 1014.14 1014.13 1014.17 1014.21 1014.26 1014.27 1014.17 1014.03 1013.99 1014.00 1014.11 1014.28 1014.23 1014.26 1014.28 1014.21 1014.27 1014.31
1013.29 1013.32 1013.49 1013.51 1013.34 1013.17 1013.61 1013.85 1013.80 1013.81 1013.84 1014.15 1014.34 1014.28 1014.31 1014.38 1014.36 1014.37 1014.39 1014.35 1014.39 1014.42 1014.41 1014.41 1014.37 1014.31 1014.31 1014.26 1014.18 1014.18 1014.16 1014.18 1014.17 1014.03 1014.06 1014.10 1014.12 1014.00 1014.17 1014.29 1014.34 1014.27 1014.33
1013.34 1013.14 1013.29 1013.54 1013.47 1013.52 1013.76 1014.10 1014.10 1014.13 1014.09 1014.22 1014.47 1014.67 1014.63 1014.64 1014.62 1014.53 1014.52 1014.48 1014.39 1014.39 1014.43 1014.51 1014.54 1014.49 1014.38 1014.34 1014.23 1014.08 1013.95 1013.90 1013.88 1013.93 1014.04 1013.97 1013.93 1013.80 1013.84 1014.03 1014.26 1014.25 1014.21
1013.10 1013.38 1013.38 1013.55 1013.59 1013.52 1013.57 1013.91 1014.05 1014.18 1014.29 1014.40 1014.59 1014.74 1014.85 1014.84 1014.93 1014.91 1014.80 1014.65 1014.56 1014.49 1014.53 1014.50 1014.52 1014.52 1014.47 1014.42 1014.33 1014.08 1013.91 1013.85 1013.70 1013.85 1013.76 1013.60 1013.51 1013.45 1013.51 1013.73 1013.98 1014.14 1014.17
1013.78 1013.95 1013.88 1014.23 1014.29 1014.08 1013.90 1014.14 1014.29 1014.45 1014.51 1014.54 1014.67 1014.78 1014.86 1014.84 1014.88 1014.93 1014.94 1014.88 1014.78 1014.72 1014.69 1014.61 1014.57 1014.54 1014.45 1014.36 1014.22 1014.03 1013.87 1013.82 1013.80 1013.72 1013.49 1013.29 1013.17 1013.11 1013.14 1013.41 1013.67 1013.88 1013.95
1013.77 1013.70 1013.61 1013.79 1013.87 1014.17 1014.23 1014.38 1014.60 1014.62 1014.66 1014.69 1014.70 1014.78 1014.85 1015.02 1015.06 1015.10 1015.08 1015.02 1014.91 1014.86 1014.77 1014.66 1014.55 1014.53 1014.52 1014.41 1014.16 1013.95 1013.68 1013.55 1013.49 1013.49 1013.33 1012.97 1012.58 1012.40 1012.46 1012.92 1013.36 1013.61 1013.70
1013.11 1012.86 1012.96 1012.96 1013.15 1013.85 1013.93 1013.99 1014.26 1014.48 1014.50 1014.58 1014.83 1014.91 1014.92 1014.83 1014.92 1015.01 1015.00 1014.94 1014.88 1014.80 1014.68 1014.59 1014.45 1014.31 1014.39 1014.47 1014.25 1014.00 1013.71 1013.39 1013.20 1013.13 1012.91 1012.78 1012.32 1011.91 1012.14 1012.61 1013.07 1013.31 1013.47
1013.64 1013.59 1013.19 1012.85 1012.86 1013.71 1014.27 1014.13 1014.38 1014.48 1014.36 1014.39 1014.65 1014.71 1014.72 1014.76 1014.89 1014.99 1015.00 1014.91 1014.69 1014.41 1014.21 1014.10 1014.08 1014.07 1014.15 1014.40 1014.34 1013.98 1013.58 1013.24 1012.98 1012.83 1012.58 1012.46 1012.38 1012.18 1012.12 1012.35 1012.67 1013.10 1013.00
1014.85 1014.76 1014.52 1014.61 1014.78 1014.51 1014.83 1014.92 1014.68 1015.07 1015.11 1014.93 1014.45 1014.39 1014.51 1014.57 1014.64 1014.41 1013.97 1013.83 1013.79 1013.96 1014.02 1013.88 1013.68 1013.65 1013.73 1013.78 1013.94 1013.84 1013.50 1013.13 1013.03 1012.76 1012.48 1012.09 1012.11 1012.22 1012.28 1012.43 1012.57 1012.88 1013.15
1015.62 1015.16 1014.97 1014.99 1015.38 1014.96 1014.83 1015.06 1014.89 1014.62 1014.93 1014.96 1014.48 1014.23 1013.82 1014.38 1014.40 1014.11 1014.55 1013.75 1013.00 1013.04 1013.33 1013.48 1013.41 1013.19 1013.54 1013.57 1013.43 1013.34 1013.41 1013.16 1012.92 1012.57 1012.50 1012.19 1012.31 1012.42 1012.47 1012.45 1012.59 1012.76 1012.86
1016.76 1016.17 1015.70 1015.64 1015.59 1015.34 1015.39 1015.64 1015.37 1015.03 1015.22 1015.02 1014.85 1013.89 1013.50 1013.64 1014.73 1014.42 1014.49 1014.09 1013.71 1013.12 1012.89 1013.31 1013.52 1013.18 1013.25 1013.25 1013.33 1013.24 1013.29 1013.02 1012.78 1012.54 1012.30 1012.21 1012.21 1012.39 1012.40 1012.55 1012.57 1012.54 1012.54
1017.35 1017.02 1016.77 1016.17 1015.72 1015.71 1015.88 1016.05 1015.82 1015.61 1015.64 1015.35 1015.26 1014.79 1014.59 1014.50 1014.55 1014.75 1014.30 1014.10 1013.78 1013.39 1013.09 1013.40 1013.99 1014.20 1013.49 1013.27 1013.54 1013.32 1012.98 1012.88 1012.55 1012.45 1012.25 1012.04 1012.03 1012.16 1012.28 1012.39 1012.27 1012.35 1012.29
1017.90 1017.64 1017.27 1016.63 1016.45 1016.51 1016.48 1016.40 1015.94 1015.98 1015.99 1015.91 1015.26 1015.18 1015.09 1015.07 1015.21 1015.02 1014.47 1014.24 1013.77 1013.45 1013.81 1014.33 1014.14 1013.54 1013.21 1013.16 1013.11 1013.16 1013.05 1012.72 1012.46 1012.28 1012.23 1011.66 1011.85 1011.98 1012.14 1012.07 1012.21 1012.28 1012.16
1018.76 1018.50 1017.89 1017.39 1017.01 1016.85 1016.83 1016.85 1016.52 1016.53 1016.41 1015.73 1015.93 1015.55 1015.65 1015.80 1015.57 1015.32 1015.09 1015.13 1014.86 1014.33 1014.48 1014.29 1013.96 1013.97 1013.84 1013.77 1013.37 1012.79 1012.53 1012.56 1012.43 1012.10 1012.24 1012.21 1011.81 1011.66 1011.75 1011.79 1011.93 1012.05 1012.03
1019.13 1018.86 1018.38 1018.16 1017.89 1017.68 1017.72 1017.56 1017.07 1016.97 1016.65 1016.47 1016.55 1016.37 1016.23 1016.06 1015.77 1015.36 1015.27 1015.41 1014.76 1014.34 1013.92 1013.63 1013.16 1013.16 1013.33 1013.10 1013.13 1012.67 1012.53 1012.37 1011.98 1011.82 1011.76 1011.90 1011.85 1011.55 1011.39 1011.56 1011.59 1011.70 1011.70
1019.77 1019.51 1019.38 1018.96 1018.59 1018.44 1018.07 1017.66 1017.38 1017.17 1017.08 1017.20 1017.17 1017.10 1016.74 1016.25 1015.95 1015.39 1015.40 1015.47 1015.17 1014.78 1014.19 1013.96 1013.67 1013.28 1013.20 1013.19 1012.98 1012.53 1012.34 1012.29 1011.82 1011.41 1011.31 1011.38 1011.55 1011.42 1011.20 1011.18 1011.27 1011.34 1011.38
1020.21 1019.84 1019.60 1019.42 1018.97 1018.55 1018.28 1018.35 1018.53 1018.34 1018.03 1018.22 1018.12 1017.93 1017.77 1017.42 1017.05 1016.74 1016.40 1016.26 1015.66 1015.14 1014.96 1014.69 1014.27 1013.86 1013.46 1013.32 1013.07 1012.86 1012.36 1012.19 1011.84 1011.05 1011.34 1011.21 1011.42 1011.40 1011.16 1011.07 1011.12 1011.08 1010.94
1020.19 1019.96 1019.86 1019.78 1019.52 1019.25 1019.08 1018.80 1019.11 1019.18 1019.09 1019.27 1019.22 1018.97 1018.64 1018.34 1017.81 1017.62 1017.28 1016.81 1016.38 1015.76 1015.48 1015.22 1014.89 1014.22 1013.95 1013.65 1013.14 1012.80 1012.36 1011.96 1011.72 1011.39 1011.36 1011.27 1011.50 1011.24 1011.26 1010.99 1010.93 1011.23 1011.11
1020.75 1020.73 1021.05 1020.83 1021.01 1020.68 1020.22 1020.02 1020.00 1020.44 1020.43 1020.37 1019.89 1019.71 1019.29 1018.94 1018.54 1018.29 1018.04 1017.72 1017.21 1016.85 1016.60 1016.13 1015.49 1014.77 1014.15 1014.06 1013.47 1012.78 1012.11 1011.66 1011.61 1011.49 1011.41 1011.77 1011.95 1011.76 1011.66 1011.26 1011.60 1011.36 1011.51
1021.53 1021.59 1021.73 1022.05 1022.05 1022.05 1021.76 1021.46 1021.27 1021.14 1021.06 1020.88 1020.57 1020.10 1019.84 1019.46 1019.07 1018.83 1018.65 1018.21 1017.81 1017.46 1017.10 1016.84 1016.57 1016.04 1015.26 1014.86 1014.57 1013.97 1012.85 1012.07 1011.82 1011.81 1011.83 1012.03 1012.20 1012.16 1012.20 1012.02 1011.51 1011.48 1011.75
1022.26 1022.24 1022.47 1022.74 1022.77 1022.63 1022.54 1022.22 1021.86 1021.51 1021.18 1021.06 1020.84 1020.64 1020.27 1019.84 1019.53 1019.25 1018.96 1018.69 1018.24 1017.75 1017.38 1017.00 1016.71 1016.50 1016.06 1015.16 1014.92 1014.71 1013.60 1013.12 1012.73 1011.99 1012.33 1012.44 1012.30 1012.19 1012.25 1012.05 1011.88 1011.51 1011.51
1022.81 1022.66 1022.90 1023.04 1023.21 1023.10 1022.83 1022.74 1022.69 1022.71 1022.60 1022.32 1021.85 1021.33 1020.73 1020.19 1019.86 1019.44 1019.09 1018.76 1018.45 1018.21 1017.80 1017.47 1017.05 1016.85 1016.58 1016.03 1015.25 1014.34 1014.34 1014.18 1013.43 1012.81 1012.60 1012.55 1012.75 1012.53 1012.45 1012.36 1012.40 1012.12 1012.10
1023.16 1023.34 1023.44 1023.57 1023.66 1023.53 1023.42 1023.44 1023.47 1023.41 1023.17 1022.72 1022.21 1021.67 1021.10 1020.54 1019.99 1019.46 1019.09 1018.71 1018.46 1018.27 1017.91 1017.59 1017.13 1016.84 1016.59 1016.29 1015.88 1015.22 1014.85 1014.22 1013.84 1013.59 1013.06 1012.96 1012.80 1012.68 1012.78 1012.70 1012.68 1012.49 1012.60
1023.88 1024.00 1023.97 1024.08 1024.17 1023.93 1023.80 1023.75 1023.71 1023.65 1023.44 1023.13 1022.62 1022.18 1021.60 1020.97 1020.31 1019.70 1019.22 1018.89 1018.57 1018.27 1017.94 1017.55 1017.17 1016.84 1016.49 1016.21 1015.92 1015.77 1015.48 1014.82 1014.05 1013.90 1013.43 1013.19 1012.97 1013.12 1013.07 1013.16 1013.17 1012.55 1012.45
Thickness
5779 5785 5789 5793 5795 5796 5791 5788 5787 5786 5786 5786 5786 5786 5787 5787 5788 5787 5786 5787 5787 5786 5785 5784 5783 5782 5780 5779 5778 5778 5779 5779 5779 5778 5776 5776 5775 5774 5774 5775 5775 5775 5775
5777 5783 5787 5786 5786 5787 5788 5785 5783 5781 5780 5780 5780 5781 5781 5781 5782 5782 5782 5782 5782 5782 5782 5781 5780 5779 5778 5776 5775 5773 5773 5774 5776 5776 5775 5774 5773 5772 5771 5772 5772 5772 5772
5776 5778 5779 5780 5784 5781 5780 5781 5780 5779 5778 5776 5776 5777 5777 5777 5777 5777 5777 5778 5778 5777 5777 5776 5775 5775 5775 5774 5772 5771 5771 5772 5773 5774 5773 5773 5771 5769 5768 5767 5768 5767 5768
5777 5778 5777 5777 5778 5780 5775 5772 5774 5775 5776 5772 5770 5771 5772 5772 5773 5774 5773 5773 5772 5771 5770 5770 5770 5771 5771 5772 5772 5772 5772 5772 5772 5772 5772 5771 5770 5770 5767 5764 5764 5765 5764
5777 5778 5778 5774 5776 5776 5774 5771 5771 5771 5772 5770 5767 5764 5765 5765 5766 5768 5768 5768 5768 5767 5766 5765 5764 5765 5766 5767 5768 5770 5772 5773 5773 5772 5770 5770 5770 5770 5768 5765 5762 5762 5763
5780 5776 5777 5773 5772 5775 5775 5771 5769 5767 5767 5767 5766 5764 5762 5762 5761 5760 5761 5761 5761 5761 5760 5761 5761 5761 5761 5761 5762 5766 5768 5769 5771 5770 5770 5770 5771 5770 5768 5765 5763 5760 5760
5777 5772 5774 5768 5768 5770 5772 5768 5766 5765 5764 5763 5761 5760 5759 5759 5758 5757 5756 5755 5756 5756 5755 5755 5756 5756 5757 5757 5759 5761 5763 5764 5765 5767 5768 5768 5770 5769 5767 5764 5762 5759 5758
5773 5771 5772 5770 5771 5767 5768 5766 5763 5763 5761 5760 5760 5758 5758 5755 5753 5751 5750 5750 5750 5749 5750 5751 5752 5752 5751 5750 5753 5756 5759 5760 5762 5762 5762 5765 5768 5770 5769 5764 5759 5757 5756
5775 5777 5775 5775 5773 5767 5766 5765 5762 5760 5761 5760 5757 5756 5754 5754 5751 5749 5749 5748 5747 5747 5747 5747 5748 5749 5745 5742 5745 5748 5750 5754 5758 5759 5759 5757 5761 5765 5763 5758 5754 5751 5749
5767 5766 5769 5771 5770 5763 5757 5760 5758 5757 5756 5754 5750 5749 5748 5747 5745 5745 5744 5745 5745 5746 5747 5746 5746 5745 5741 5736 5736 5741 5745 5748 5752 5755 5757 5756 5754 5754 5754 5753 5750 5744 5746
5754 5755 5755 5752 5749 5751 5750 5749 5751 5743 5743 5743 5747 5744 5743 5742 5739 5741 5744 5745 5744 5741 5738 5740 5741 5740 5737 5733 5730 5730 5735 5739 5741 5746 5748 5751 5748 5746 5744 5743 5742 5739 5736
5742 5747 5749 5747 5743 5745 5746 5743 5744 5745 5740 5738 5740 5741 5742 5734 5733 5735 5732 5735 5742 5740 5736 5731 5729 5730 5727 5726 5729 5729 5728 5730 5733 5737 5739 5741 5738 5736 5735 5735 5735 5733 5730
5729 5733 5739 5739 5738 5738 5736 5734 5735 5735 5731 5730 5729 5735 5736 5736 5725 5726 5722 5724 5725 5728 5729 5721 5713 5715 5713 5716 5717 5720 5719 5720 5724 5726 5730 5729 5729 5727 5726 5724 5723 5724 5725
5720 5723 5726 5728 5730 5730 5728 5725 5723 5723 5720 5720 5717 5718 5717 5718 5716 5714 5715 5715 5715 5717 5715 5707 5695 5690 5697 5703 5703 5708 5711 5711 5715 5717 5718 5718 5719 5718 5716 5713 5714 5713 5714
5713 5714 5716 5719 5720 5718 5715 5713 5716 5714 5711 5708 5709 5708 5705 5702 5701 5701 5707 5705 5708 5708 5700 5690 5687 5693 5696 5694 5696 5696 5697 5702 5706 5706 5707 5712 5707 5706 5705 5705 5704 5703 5704
5703 5704 5707 5709 5709 5708 5707 5706 5706 5702 5700 5703 5699 5700 5697 5694 5692 5690 5690 5689 5691 5692 5687 5686 5687 5684 5685 5685 5687 5690 5690 5689 5690 5692 5692 5694 5697 5698 5697 5696 5695 5694 5694
5700 5699 5699 5699 5697 5695 5691 5690 5693 5692 5693 5693 5689 5688 5687 5687 5686 5688 5687 5682 5685 5684 5686 5686 5687 5684 5683 5686 5683 5686 5684 5683 5685 5683 5685 5684 5685 5687 5688 5686 5686 5685 5685
5692 5691 5688 5687 5687 5685 5684 5684 5685 5685 5683 5680 5678 5677 5677 5678 5679 5682 5680 5674 5672 5673 5676 5676 5676 5679 5678 5676 5676 5678 5677 5677 5682 5685 5685 5683 5680 5680 5681 5681 5680 5681 5679
5686 5686 5686 5683 5681 5679 5677 5673 5669 5669 5671 5666 5665 5664 5662 5662 5662 5663 5663 5660 5662 5664 5664 5663 5664 5665 5666 5666 5666 5668 5672 5672 5672 5678 5674 5675 5672 5671 5672 5671 5669 5668 5668
5681 5680 5677 5674 5671 5668 5665 5663 5657 5655 5653 5649 5647 5647 5647 5647 5650 5649 5649 5651 5651 5655 5655 5653 5654 5656 5656 5657 5659 5660 5663 5665 5664 5665 5663 5661 5658 5661 5659 5659 5659 5652 5650
5673 5668 5660 5656 5651 5648 5647 5645 5643 5636 5633 5630 5631 5630 5631 5631 5632 5633 5633 5634 5637 5639 5637 5638 5640 5643 5646 5644 5647 5651 5654 5655 5652 5649 5648 5644 5641 5641 5639 5641 5634 5637 5634
5659 5654 5648 5639 5634 5629 5628 5625 5623 5620 5617 5616 5616 5618 5618 5618 5617 5617 5618 5621 5622 5623 5623 5622 5620 5621 5624 5625 5623 5625 5632 5638 5636 5634 5630 5626 5622 5621 5618 5617 5621 5619 5615
5645 5641 5634 5626 5621 5616 5612 5611 5610 5610 5609 5607 5606 5606 5606 5607 5606 5606 5606 5606 5608 5611 5610 5610 5610 5608 5609 5613 5608 5606 5612 5612 5613 5619 5613 5606 5605 5604 5602 5600 5598 5600 5600
5634 5631 5623 5616 5609 5606 5603 5600 5596 5592 5589 5589 5590 5592 5594 5595 5595 5594 5594 5595 5595 5594 5594 5593 5594 5591 5589 5591 5594 5595 5592 5590 5591 5594 5596 5592 5588 5586 5582 5580 5577 5579 5578
5623 5617 5611 5606 5599 5596 5592 5587 5582 5579 5577 5578 5579 5581 5583 5584 5585 5586 5586 5586 5585 5582 5581 5580 5580 5579 5578 5578 5577 5579 5576 5576 5575 5574 5577 5572 5569 5564 5563 5562 5560 5559 5557
5607 5601 5597 5592 5587 5584 5582 5578 5574 5571 5568 5567 5568 5569 5570 5571 5573 5575 5575 5575 5574 5572 5571 5571 5570 5568 5567 5566 5564 5560 5559 5562 5563 5561 5561 5558 5555 5547 5543 5540 5539 5544 5542